This demonstration page uses our WeatherBlox Daily Observations layout. Learn more.

Left ArrowRight Arrow

41.86663, -103.66717

Hourly Observations for January 29, 2020

Temp ( °F °C ) Dew Point ( °F °C ) Humidity (%) Winds ( mph kmh ) Pressure ( in mb ) Visibility ( mi km ) Precip ( " mm )
12:53 am 00:53 Clear 22 -5.6 18 -7.8 85 85 N N/A 30.06 1018 10 16 N/A
1:53 am 01:53 Mostly Cloudy 24 -4.4 19 -7.2 81 81 NNE 3 6 30.06 1018 10 16 N/A
2:53 am 02:53 Mostly Clear 23 -5 19 -7.2 85 85 NE 3 6 30.06 1018 10 16 N/A
3:53 am 03:53 Mostly Clear 21 -6.1 19 -7.2 92 92 N N/A 30.08 1019 10 16 N/A
4:53 am 04:53 Partly Cloudy 21 -6.1 18 -7.8 88 88 N N/A 30.11 1020 10 16 N/A
5:53 am 05:53 Clear 21 -6.1 19 -7.2 92 92 W 7 11 30.15 1021 10 16 N/A
6:53 am 06:53 Cloudy 25 -3.9 21 -6.1 85 85 NW 8 13 30.14 1021 10 16 N/A
7:53 am 07:53 Cloudy 28 -2.2 24 -4.4 85 85 NW 5 7 30.16 1021 10 16 N/A
8:53 am 08:53 Cloudy with Light Snow 31 -0.6 28 -2.2 89 89 WNW 5 7 30.18 1022 2 3 0.00 0.00
9:01 am 09:01 Cloudy with Light Snow 31 -0.6 28 -2.2 89 89 WNW 6 9 30.20 1023 2 3 0.00 0.00
9:15 am 09:15 Cloudy with Light Snow 32 undefined 30 -1.1 92 92 WNW 6 9 30.19 1022 2 2 0.00 0.00
9:53 am 09:53 Cloudy with Light Snow 34 1.1 33 0.6 97 97 W 7 11 30.18 1022 1 2 0.01 0.25
10:05 am 10:05 Cloudy with Light Snow 34 1.1 33 0.6 97 97 W 7 11 30.18 1022 2 2 0.00 0.00
10:18 am 10:18 Cloudy with Light Snow 34 1.1 34 1.1 100 100 W 7 11 30.18 1022 3 4 0.00 0.00
10:27 am 10:27 Cloudy with Light Snow 34 1.1 34 1.1 100 100 W 8 13 30.18 1022 3 5 0.01 0.25
10:53 am 10:53 Cloudy 36 2.2 34 1.1 93 93 W 8 13 30.18 1022 9 14 0.01 0.25
11:07 am 11:07 Cloudy with Light Rain 36 2.2 34 1.1 93 93 WNW 9 15 30.17 1022 10 16 0.00 0.00
11:53 am 11:53 Cloudy with Light Rain 37 2.8 36 2.2 96 96 WNW 9 15 30.16 1021 7 11 0.00 0.00
12:10 pm 12:10 Cloudy with Light Rain 36 2 36 2 100 100 WNW 9 15 30.15 1021 8 13 N/A
12:53 pm 12:53 Cloudy with Light Rain 37 2.8 36 2.2 96 96 WNW 8 13 30.14 1021 9 14 0.02 0.51
1:53 pm 13:53 Cloudy with Light Rain 39 3.9 37 2.8 93 93 WNW 9 15 30.11 1020 10 16 0.01 0.25
2:12 pm 14:12 Cloudy 39 3.9 37 2.8 93 93 WNW 8 13 30.09 1019 10 16 0.00 0.00
2:53 pm 14:53 Cloudy with Light Rain 38 3.3 36 2.2 93 93 NW 8 13 30.11 1020 6 10 0.01 0.25
3:12 pm 15:12 Cloudy with Light Rain 39 4 37 3 93 93 NW 8 13 30.09 1019 10 16 N/A
3:53 pm 15:53 Cloudy 38 3.3 35 1.7 89 89 NNW 6 9 30.12 1020 10 16 0.01 0.25
4:53 pm 16:53 Mostly Cloudy 37 2.8 36 2.2 96 96 WNW 3 6 30.12 1020 10 16 N/A
5:04 pm 17:04 Partly Cloudy 36 2.2 35 1.7 97 97 WNW 3 6 30.12 1020 10 16 N/A
5:53 pm 17:53 Mostly Cloudy 34 1.1 33 0.6 97 97 N N/A 30.14 1021 10 16 N/A
6:53 pm 18:53 Partly Cloudy 33 0.6 32 undefined 96 96 N N/A 30.12 1020 9 14 N/A
7:12 pm 19:12 Partly Cloudy with Mist and Fog 31 -0.6 31 -0.6 100 100 N N/A 30.16 1021 1 1 N/A
7:20 pm 19:20 Mostly Cloudy with Freezing Fog 30 -1 30 -1 100 100 NW 3 6 30.17 1022 1 1 N/A
7:24 pm 19:24 Mostly Cloudy with Freezing Fog 31 -0.6 30 -1.1 96 96 N N/A 30.16 1021 0 0 N/A
7:33 pm 19:33 Mostly Cloudy with Freezing Fog 29 -1.7 29 -1.7 100 100 N N/A 30.18 1022 1 1 N/A
7:53 pm 19:53 Mostly Cloudy with Freezing Fog 28 -2.2 28 -2.2 100 100 N N/A 30.13 1020 1 1 N/A
8:05 pm 20:05 Clear with Mist and Fog 30 -1.1 30 -1.1 100 100 N N/A 30.17 1022 1 2 N/A
8:17 pm 20:17 Clear with Mist and Fog 30 -1.1 30 -1.1 100 100 NW 3 6 30.17 1022 1 1 N/A
8:31 pm 20:31 Clear with Mist and Fog 30 -1.1 30 -1.1 100 100 NW 5 7 30.17 1022 1 2 N/A
8:43 pm 20:43 Clear with Mist and Fog 30 -1.1 30 -1.1 100 100 NW 6 9 30.17 1022 3 5 N/A
8:53 pm 20:53 Clear 30 -1.1 29 -1.7 96 96 NW 5 7 30.11 1020 8 13 N/A
9:53 pm 21:53 Mostly Clear 28 -2.2 27 -2.8 96 96 NNW 7 11 30.09 1019 10 16 N/A
10:53 pm 22:53 Cloudy 27 -2.8 27 -2.8 100 100 NNW 7 11 30.08 1019 10 16 N/A
11:53 pm 23:53 Cloudy 26 -3.3 25 -3.9 96 96 N N/A 30.06 1018 7 11 N/A

Powered by AerisWeather